Location: Gerlach
(40.6516°N, 119.3568°W)
Time: 16:31:26
(UTC-07:00)

A-11 Canister half - Pass Details

Date: 20 February 2024
Orbit: 1525 x 1683 km, 47.3° (Epoch: 22 April)

Event Time Altitude Azimuth Distance (km) Brightness Sun altitude
Rises 21:56:46 0° 236° (SW) 4,750 11.8 -47.9°
Reaches altitude 10° 21:59:52 10° 236° (SW) 3,748 11.1 -48.4°
Enters shadow 22:00:57 14° 236° (SW) 3,400 10.9 -48.6°
